Temperature
15 15 15 16 18 19 19 19 19 18 18 16 16 17 18 19 19 18 13 14 13 13 13 13 13 12 12 13 13 13 13 13 13 13 13 13 13 13 13 13 13 13 13 13 14 13 14 14 14
14 15 15 17 19 19 19 19 18 18 17 14 15 15 17 16 14 13 13 13 13 13 12 12 12 12 12 12 12 12 12 12 12 12 12 12 12 13 13 13 13 13 13 13 13 13 13 13 13
14 14 16 18 18 19 20 18 18 16 14 14 15 15 16 15 13 12 13 13 13 12 12 12 12 12 12 12 12 12 12 12 12 12 12 12 12 12 12 12 13 13 13 13 13 13 13 13 13
14 14 16 18 18 18 19 18 16 15 14 14 15 15 13 12 12 12 13 13 12 12 12 12 12 12 12 12 12 12 12 12 12 12 12 12 12 12 12 12 12 12 12 12 13 13 13 13 13
14 16 17 17 17 17 17 16 15 16 16 14 14 15 13 12 12 12 12 12 12 11 11 11 11 11 11 11 12 12 12 12 11 11 11 11 12 12 12 12 12 12 12 12 12 12 12 13 13
14 16 17 17 17 16 16 14 14 16 15 14 14 14 13 12 12 12 12 12 11 11 11 11 11 11 11 11 11 11 11 11 11 11 11 11 11 12 12 11 11 11 12 12 12 12 12 12 12
15 16 17 17 17 16 15 14 14 15 15 14 13 14 12 11 11 11 11 11 10 11 11 11 11 11 11 11 11 11 11 11 11 11 11 11 11 11 11 11 11 11 11 11 11 12 12 12 12
13 15 15 16 16 16 15 13 13 14 14 12 12 14 13 10 11 11 10 10 10 10 10 11 11 11 10 11 11 11 11 11 11 11 11 11 11 11 11 11 11 11 11 11 11 11 11 11 11
12 14 15 15 15 15 14 13 12 11 12 11 10 11 11 10 10 10 9 9 10 10 10 10 10 10 10 10 10 10 11 11 11 11 10 10 10 10 10 10 10 10 10 10 10 11 11 11 11
13 14 14 14 15 14 13 13 12 11 12 11 10 10 10 10 10 9 9 9 9 9 9 10 10 10 10 10 10 10 10 10 10 10 10 10 10 10 10 10 10 10 10 10 10 10 10 10 10
12 13 13 12 12 12 12 11 11 12 13 12 11 10 9 9 9 9 9 9 9 9 9 9 9 9 10 10 10 10 10 10 10 10 10 9 9 9 9 9 9 9 10 10 10 10 10 10 10
11 11 11 11 10 10 11 11 10 11 12 10 10 10 9 9 8 9 8 8 8 9 9 9 9 9 9 9 9 9 9 9 9 9 9 9 9 9 9 9 9 9 9 9 9 9 9 9 9
11 10 9 9 9 9 9 10 10 10 9 9 9 9 9 8 8 8 8 8 8 8 9 9 9 9 9 9 9 9 9 9 9 9 9 9 9 9 9 9 9 9 9 9 9 9 9 9 9
10 9 9 9 9 9 9 9 9 9 8 8 8 8 8 8 7 7 7 8 8 8 8 8 8 8 9 9 9 9 9 9 9 9 9 8 8 8 8 8 8 8 8 8 8 8 8 8 8
8 9 10 9 9 9 9 10 9 8 8 7 7 7 6 6 6 7 7 7 7 8 8 8 8 8 8 8 8 8 8 8 8 8 8 8 8 8 8 8 8 8 8 8 8 8 8 8 8
10 10 11 10 9 8 9 11 10 7 7 7 6 6 6 6 6 6 7 7 7 7 8 8 8 8 8 8 8 8 8 8 8 8 8 8 8 8 7 7 7 7 7 7 7 7 7 7 7
10 11 11 10 9 9 9 10 9 6 7 7 6 5 5 5 5 6 6 6 7 7 7 8 8 8 8 7 8 8 8 8 8 8 7 7 7 7 7 7 7 7 7 7 7 7 7 6 6
10 11 10 10 9 8 9 9 9 7 6 6 6 5 5 5 5 5 6 6 6 6 7 7 7 7 7 7 7 7 7 7 7 7 7 7 7 7 7 7 7 6 6 6 6 6 6 6 6
10 10 10 9 8 8 9 9 9 8 6 6 6 5 5 4 4 5 5 5 6 6 6 6 7 7 7 7 7 7 7 7 7 7 7 7 6 6 6 6 6 6 6 6 6 5 5 5 5
9 9 9 8 7 8 8 8 9 8 7 6 6 5 5 4 4 4 4 5 5 5 6 6 6 6 6 6 6 6 6 6 6 6 6 6 6 6 6 6 6 6 5 5 5 5 5 5 5
8 9 8 8 7 7 7 9 8 8 6 5 5 4 4 4 3 3 3 4 4 5 5 5 5 6 6 6 6 6 6 6 6 6 6 6 6 6 5 5 5 5 5 5 5 5 4 4 4
8 7 7 7 7 8 8 9 9 8 7 6 5 4 4 3 3 3 3 3 4 4 5 5 5 5 5 5 5 5 5 5 5 5 5 5 5 5 5 5 5 5 5 5 4 4 4 4 4
7 6 6 7 7 7 7 8 9 7 6 7 5 4 3 3 2 2 3 3 3 4 4 4 4 4 5 5 5 5 5 5 5 5 5 5 5 5 5 5 4 4 4 4 4 4 4 3 3
5 6 6 6 7 7 8 8 9 7 6 6 5 3 2 2 2 2 2 3 3 3 3 4 4 4 4 4 4 4 5 5 4 4 5 4 4 4 4 4 4 4 4 4 4 3 3 3 3
6 7 7 7 7 8 6 7 7 6 5 5 4 2 1 1 1 1 2 2 3 3 3 3 3 3 4 4 4 4 4 4 4 4 4 4 4 4 4 4 4 4 3 3 3 3 3 2 2
5 6 7 7 8 8 5 6 7 4 3 2 2 1 1 0 0 1 1 2 2 3 3 3 3 3 3 3 3 3 3 3 4 4 4 4 4 4 4 3 3 3 3 3 3 2 2 2 2
5 6 6 6 5 6 7 6 5 4 3 2 1 0 -0 -0 -0 0 1 2 2 2 3 3 3 3 3 3 3 3 3 3 3 3 3 3 3 3 3 3 3 3 3 2 2 2 2 2 2
4 5 5 5 6 7 7 6 7 4 3 2 1 0 -0 -1 -1 -0 0 1 1 2 2 2 2 2 2 2 3 2 3 3 3 3 3 3 3 3 2 2 2 2 2 2 2 1 1 1 1
3 4 4 5 5 6 6 7 5 4 3 2 1 -0 -1 -1 -1 -1 -0 0 0 1 1 2 2 2 2 2 2 2 2 2 2 2 2 2 2 2 2 2 2 1 1 1 1 1 1 1 1
3 4 4 5 5 5 6 6 2 2 1 1 -0 -1 -2 -2 -2 -1 -1 -1 -0 -0 0 1 1 1 1 1 1 1 1 2 2 1 1 2 2 1 1 1 1 1 1 1 1 0 0 -0 -0
Wind_Speed
1 2 3 3 5 6 11 8 6 6 5 3 2 4 4 4 3 1 4 3 4 7 9 10 12 13 12 11 11 11 11 11 11 11 11 11 11 12 13 13 13 13 13 13 13 14 14 15 15
2 3 4 4 7 11 10 9 9 6 3 4 3 4 4 3 0 2 3 3 5 8 9 11 13 13 13 12 12 12 11 11 11 11 11 11 12 12 13 13 14 14 14 14 14 14 14 15 15
3 2 4 5 9 13 10 7 8 5 5 4 4 3 3 2 2 2 2 5 7 8 9 11 13 13 12 12 12 12 12 11 11 11 11 12 12 13 13 14 14 14 14 15 15 15 15 14 14
4 3 3 8 14 12 9 5 5 6 5 4 4 3 2 1 1 1 4 6 8 8 9 12 13 13 13 12 12 12 12 12 11 12 12 12 12 13 13 14 14 14 14 15 15 15 15 15 14
3 4 8 11 14 10 7 5 6 7 6 5 5 4 3 2 2 3 5 6 8 8 8 11 13 13 13 12 12 12 12 12 12 12 12 12 13 13 13 14 14 14 15 15 15 15 14 14 14
4 5 9 15 15 10 7 7 7 7 6 5 6 5 3 3 3 4 5 6 7 8 8 9 12 13 13 12 12 12 12 12 12 12 12 12 13 13 13 13 14 14 15 15 15 14 14 14 15
6 7 11 13 12 11 8 7 8 8 8 6 5 5 4 3 3 4 5 6 7 8 7 8 11 12 12 12 12 11 11 12 12 12 12 13 13 13 13 13 14 14 14 14 14 14 14 14 15
3 4 9 12 12 11 7 7 6 8 7 3 4 5 4 3 5 5 6 6 7 7 7 7 9 11 12 12 12 12 12 12 12 12 12 13 12 12 13 13 13 14 14 14 14 14 14 14 14
4 7 11 12 10 8 6 6 4 3 4 4 3 2 2 6 7 7 6 6 6 6 6 6 7 9 10 10 11 11 11 11 11 11 12 11 10 10 11 13 13 13 13 14 14 14 14 13 13
6 10 12 7 6 5 7 7 5 5 6 6 4 1 3 7 8 9 8 8 8 7 6 5 6 7 9 9 9 9 9 9 9 9 9 8 8 9 10 13 13 13 13 13 13 13 11 9 9
6 9 8 6 4 3 5 6 6 7 8 8 7 6 6 8 8 9 9 9 9 8 7 5 6 7 8 7 7 7 7 7 8 8 8 8 8 8 8 9 9 10 10 9 10 9 8 8 7
6 7 7 6 4 4 5 5 6 8 6 3 4 6 9 9 9 9 9 8 8 7 7 5 5 6 7 7 7 7 6 6 6 7 7 7 6 6 6 6 7 7 6 6 6 7 8 8 9
8 7 6 5 4 5 4 5 6 6 4 1 2 6 8 9 8 7 7 7 7 7 7 6 5 6 6 7 6 6 6 6 7 7 7 7 6 6 6 6 6 6 6 6 6 6 7 8 8
4 4 5 5 5 4 5 6 6 6 3 2 3 5 7 8 8 7 7 6 7 7 7 6 6 6 7 7 7 6 6 7 7 6 7 7 7 6 6 6 5 5 6 6 6 6 6 6 7
3 3 4 4 5 4 4 7 8 5 4 4 4 4 5 5 6 7 7 7 7 7 7 7 6 6 7 8 8 6 6 7 6 6 7 7 7 7 7 5 5 5 6 6 6 6 6 6 7
3 4 5 3 4 4 6 10 4 3 4 5 4 4 4 5 5 5 6 6 6 6 6 6 6 7 7 7 7 7 7 7 6 7 7 7 7 8 7 5 5 6 6 6 5 5 5 5 5
4 6 8 4 4 4 7 8 2 2 3 4 4 4 5 5 4 4 5 5 6 7 6 6 6 7 7 7 7 7 6 6 6 7 7 7 7 8 7 6 6 7 6 5 5 4 4 5 5
5 7 7 6 3 4 7 8 5 3 4 5 6 6 6 5 6 5 4 4 5 6 6 6 6 6 6 6 6 5 5 5 5 6 6 8 7 7 7 6 7 7 5 5 5 5 5 5 5
4 6 8 6 4 5 8 9 7 5 6 7 6 6 6 7 6 4 3 3 4 5 6 6 6 6 6 5 6 5 5 5 4 4 7 8 8 8 7 6 6 6 5 6 6 5 6 5 4
5 6 7 4 3 5 7 10 8 6 7 7 7 7 7 6 5 4 3 3 4 4 5 6 7 6 6 6 5 5 5 4 4 4 5 7 8 8 7 7 6 6 5 7 7 7 4 4 3
6 7 6 5 3 4 5 8 7 5 4 4 5 6 6 6 6 5 4 4 4 4 5 5 6 6 6 5 5 5 5 4 4 4 4 6 7 8 7 7 7 6 6 6 7 7 6 5 3
6 4 5 4 5 5 5 6 6 5 5 5 5 5 6 5 6 5 5 5 5 5 5 5 5 6 6 6 7 8 7 6 5 5 5 6 7 7 8 8 7 7 6 6 7 6 5 6 5
3 2 4 6 6 6 6 7 5 4 6 6 4 4 5 5 5 5 5 5 4 4 4 4 5 5 5 5 7 8 6 5 5 5 6 6 5 6 7 7 7 7 6 6 7 6 6 5 5
1 2 3 4 5 8 9 8 6 4 6 5 4 4 4 3 4 4 4 3 3 3 3 4 5 5 5 5 6 7 7 6 7 7 6 5 4 5 6 7 7 7 6 6 6 6 7 5 5
1 2 2 4 6 6 4 6 6 1 2 3 4 4 3 2 2 2 3 3 3 3 3 4 5 5 5 6 6 6 6 7 8 8 7 6 5 5 6 6 6 6 6 6 6 6 6 6 6
4 4 4 4 5 4 3 7 3 1 2 3 3 3 2 2 2 2 2 3 3 4 4 4 5 5 5 5 6 6 6 5 5 6 6 6 5 6 6 7 6 7 7 7 6 5 5 5 5
3 4 4 4 4 6 6 4 4 1 2 3 4 4 3 3 3 3 3 3 3 3 4 5 5 5 5 5 5 5 5 5 5 6 6 5 5 5 7 7 7 7 7 7 6 5 6 5 5
2 3 3 4 4 6 6 6 4 3 3 3 4 4 4 4 4 3 3 3 3 3 3 4 4 5 4 4 5 4 5 5 5 5 6 6 6 6 7 7 7 7 7 7 6 5 5 6 5
3 4 4 4 4 5 6 4 1 2 2 2 4 4 4 4 4 4 3 3 3 2 1 2 3 4 4 4 5 5 5 5 5 5 5 6 6 7 7 7 7 7 7 7 7 6 6 6 5
5 6 6 5 5 6 6 5 3 1 1 2 4 5 5 4 4 3 3 3 3 2 1 1 1 3 4 4 4 4 4 4 5 5 4 5 6 6 7 7 7 7 7 7 7 7 6 6 6
Wind_Direction
240 188 192 193 203 220 230 218 209 194 199 201 195 209 212 212 222 126 84 125 147 157 160 159 149 141 137 133 129 125 122 118 113 108 103 100 96 91 87 87 86 84 82 82 82 81 79 79 79
198 192 192 200 223 226 226 215 209 206 173 157 178 204 208 211 237 76 117 137 159 156 157 157 146 141 137 133 129 127 124 120 115 110 105 101 98 94 91 87 85 84 83 81 81 80 80 79 79
172 211 202 203 225 232 226 201 208 190 176 182 179 208 227 196 152 112 97 149 156 152 153 149 144 140 136 134 131 127 123 120 115 112 108 103 99 96 92 88 85 84 82 81 81 79 80 79 79
187 180 207 224 227 230 236 197 181 177 185 204 202 189 192 97 99 86 124 149 151 146 149 145 142 139 135 132 130 127 122 120 116 112 108 104 101 97 93 90 87 85 83 82 81 79 78 78 78
200 200 210 225 233 231 231 215 186 200 193 190 204 213 199 135 81 115 135 149 149 144 142 145 142 139 136 133 130 128 125 122 119 115 110 106 102 98 95 92 91 89 87 84 81 79 78 78 79
189 208 222 229 230 226 220 210 204 216 208 195 202 211 196 139 128 131 143 150 149 142 138 143 142 139 137 135 132 129 127 124 121 118 114 108 104 101 99 96 93 92 90 87 83 81 79 79 80
210 211 230 236 235 229 217 204 213 223 220 209 202 205 183 166 154 147 149 148 147 141 136 137 145 141 136 134 130 127 125 122 119 116 112 109 105 102 101 98 95 93 91 88 86 83 81 80 79
216 213 229 231 234 232 204 191 215 224 229 194 197 217 207 184 152 149 146 148 148 145 141 140 146 146 142 137 131 128 125 121 118 114 110 108 106 105 103 101 97 94 92 89 87 84 82 81 79
208 224 231 226 228 225 191 195 200 222 204 193 216 279 11 140 151 150 151 155 158 156 152 148 149 147 144 140 135 131 127 122 120 116 112 115 116 112 107 99 97 95 93 91 87 84 82 82 79
207 227 233 231 233 223 195 203 193 194 211 220 232 247 124 149 162 167 170 172 173 173 165 161 161 151 146 140 140 140 137 132 130 129 125 121 116 111 108 101 97 94 92 90 85 82 81 80 82
209 228 231 232 231 212 201 211 203 211 225 233 230 197 165 168 177 183 185 184 182 179 174 168 166 155 150 144 143 142 141 140 136 133 129 125 119 117 113 111 101 94 90 87 84 77 72 73 75
209 226 230 231 220 213 218 215 217 229 248 294 234 176 168 177 188 193 191 190 184 181 178 175 171 158 152 148 147 147 143 141 138 137 137 135 124 119 118 112 109 102 94 88 83 78 74 74 75
221 226 230 233 226 221 227 231 239 244 263 346 130 164 182 190 194 200 199 193 190 187 183 183 178 169 162 155 148 150 147 147 143 142 145 143 134 128 120 115 107 101 100 95 89 86 82 79 75
210 215 226 234 230 229 230 245 246 252 239 191 167 186 196 201 202 204 205 205 203 199 192 188 189 180 173 164 156 153 151 149 147 147 150 148 141 135 131 121 111 105 102 99 98 93 88 81 78
186 210 231 231 225 225 226 247 240 249 211 213 208 202 204 209 208 211 213 213 210 206 198 192 189 186 182 172 161 153 152 152 149 147 153 152 147 146 137 130 121 114 112 107 102 94 90 84 79
196 222 232 209 203 204 215 249 236 217 208 217 217 215 218 222 220 221 220 219 217 208 201 196 188 187 187 179 164 156 153 156 154 149 152 152 151 152 144 137 128 124 121 114 108 102 98 89 81
211 234 242 233 199 196 217 254 240 200 215 227 229 229 231 234 232 233 228 222 217 210 200 194 191 188 186 177 163 158 152 154 155 152 152 155 154 156 152 144 137 135 127 121 118 113 107 98 84
226 234 240 236 205 207 228 248 253 226 231 244 246 241 242 242 239 236 236 227 217 211 201 193 189 186 180 170 158 155 153 148 151 154 155 156 156 156 153 146 145 143 137 131 129 120 106 101 95
235 238 246 252 244 240 245 258 263 245 242 247 248 245 245 248 247 236 232 226 215 210 203 196 187 186 176 173 171 170 172 161 155 156 158 159 158 157 155 149 150 152 151 148 142 130 122 113 114
228 242 253 261 240 243 255 262 261 246 242 247 252 252 250 253 249 239 229 221 219 215 211 204 194 186 185 181 177 174 164 162 154 152 159 162 160 160 161 159 161 161 158 156 153 145 138 133 141
238 244 252 259 260 235 260 262 243 233 232 251 257 261 259 247 240 234 229 226 223 220 217 213 200 192 189 176 160 145 143 140 155 163 168 171 167 166 167 168 167 167 167 169 168 163 160 159 156
245 248 248 242 237 241 232 260 240 231 239 252 259 259 259 255 245 234 229 228 224 221 215 211 202 191 180 170 176 176 179 178 182 175 174 170 170 170 170 171 171 170 173 176 176 175 173 172 169
261 262 240 238 237 251 230 243 252 214 247 255 261 262 261 252 247 241 235 230 226 217 209 204 197 185 177 179 182 186 185 178 167 167 169 168 167 171 171 172 173 174 176 181 181 180 178 184 184
236 217 215 218 228 242 229 228 255 224 245 259 277 296 293 278 258 251 249 239 231 216 203 200 195 189 180 182 181 187 182 170 167 170 171 172 169 172 174 176 176 178 179 183 187 188 187 187 186
234 211 231 224 223 239 194 225 248 255 285 288 295 302 309 306 286 271 264 248 232 219 210 205 198 194 189 185 185 186 183 178 180 179 179 176 176 180 182 181 183 182 183 183 185 190 190 189 185
218 219 227 248 253 257 210 230 233 21 348 342 340 329 337 335 316 298 275 266 248 226 213 207 202 197 192 188 189 184 180 182 186 185 182 183 185 184 180 182 184 184 180 178 181 187 188 189 190
196 215 247 257 264 256 235 238 265 255 350 359 358 355 337 322 314 312 303 284 264 241 221 211 204 196 192 190 184 181 181 184 182 181 181 181 178 175 177 181 181 184 180 179 179 187 187 185 190
252 196 199 224 245 253 247 242 243 231 274 322 336 329 320 318 313 313 307 300 285 264 242 217 208 199 192 185 181 183 184 184 178 177 179 178 177 172 175 179 182 182 180 180 181 187 188 184 186
192 199 218 224 246 250 260 248 190 211 240 289 311 317 315 307 305 304 304 305 302 287 268 231 213 199 189 184 181 179 178 173 169 175 179 178 177 175 178 179 180 182 181 180 182 187 183 183 184
239 227 214 230 235 237 256 260 112 175 288 319 325 331 327 319 314 309 309 313 309 296 284 262 229 206 193 184 179 178 170 165 168 173 177 175 177 178 178 178 179 181 182 183 185 186 186 187 188
Height
1503 1505 1507 1510 1510 1506 1501 1500 1502 1506 1508 1511 1512 1512 1510 1510 1511 1516 1516 1514 1515 1517 1519 1521 1524 1525 1527 1528 1529 1530 1531 1531 1532 1533 1533 1534 1534 1534 1534 1534 1535 1535 1535 1536 1536 1536 1537 1537 1538
1503 1505 1509 1509 1503 1501 1497 1498 1502 1504 1508 1511 1512 1512 1511 1512 1513 1514 1513 1513 1515 1517 1519 1521 1523 1525 1527 1528 1529 1530 1531 1532 1532 1533 1534 1534 1534 1535 1535 1535 1536 1536 1536 1537 1537 1537 1538 1538 1539
1503 1504 1507 1503 1499 1493 1492 1498 1501 1506 1509 1510 1511 1512 1512 1512 1513 1513 1512 1513 1515 1517 1519 1521 1523 1525 1526 1528 1529 1530 1531 1532 1533 1533 1534 1535 1535 1535 1536 1536 1536 1537 1537 1538 1538 1538 1539 1539 1540
1503 1506 1506 1500 1494 1493 1494 1499 1503 1506 1509 1510 1511 1511 1512 1512 1512 1512 1512 1513 1514 1516 1518 1520 1523 1525 1526 1528 1529 1530 1531 1532 1533 1534 1534 1535 1536 1536 1536 1537 1537 1538 1538 1539 1539 1539 1540 1540 1540
1502 1503 1500 1496 1493 1494 1498 1502 1504 1504 1506 1508 1510 1509 1510 1511 1510 1511 1511 1512 1514 1516 1518 1520 1522 1524 1526 1527 1529 1530 1531 1532 1533 1534 1534 1535 1536 1536 1537 1537 1538 1538 1539 1539 1540 1540 1540 1541 1541
1502 1499 1494 1490 1489 1495 1499 1502 1504 1504 1505 1508 1509 1509 1509 1509 1509 1510 1511 1512 1514 1516 1518 1520 1522 1524 1526 1527 1528 1529 1531 1532 1533 1534 1535 1536 1536 1537 1537 1538 1538 1539 1539 1540 1540 1541 1541 1542 1542
1499 1495 1490 1487 1489 1493 1497 1501 1503 1502 1503 1506 1507 1507 1507 1508 1508 1509 1510 1512 1513 1515 1517 1519 1521 1523 1525 1527 1528 1529 1531 1532 1532 1534 1535 1536 1536 1537 1538 1538 1539 1539 1540 1540 1541 1541 1542 1542 1543
1497 1496 1491 1489 1489 1490 1496 1500 1501 1503 1503 1505 1506 1506 1506 1506 1506 1507 1509 1511 1513 1514 1516 1518 1520 1522 1524 1526 1528 1529 1530 1532 1533 1534 1535 1536 1537 1537 1538 1539 1539 1540 1540 1541 1541 1542 1542 1543 1543
1496 1495 1488 1487 1488 1490 1496 1499 1501 1502 1503 1503 1504 1505 1505 1504 1505 1506 1508 1510 1512 1513 1515 1517 1519 1521 1523 1525 1527 1529 1530 1531 1533 1534 1535 1536 1537 1538 1538 1539 1539 1540 1541 1541 1542 1542 1542 1543 1544
1494 1489 1485 1488 1490 1492 1495 1497 1499 1501 1501 1502 1502 1502 1503 1503 1504 1505 1506 1508 1510 1512 1514 1516 1517 1520 1522 1524 1526 1528 1529 1531 1532 1533 1534 1536 1536 1537 1538 1539 1539 1540 1541 1541 1542 1542 1543 1543 1544
1490 1487 1488 1491 1493 1494 1496 1497 1499 1498 1498 1499 1499 1500 1500 1501 1503 1504 1505 1507 1508 1510 1512 1514 1516 1518 1520 1522 1524 1526 1528 1529 1531 1532 1534 1535 1536 1537 1538 1538 1539 1540 1540 1541 1542 1542 1543 1543 1544
1489 1490 1491 1491 1493 1495 1496 1496 1497 1497 1497 1498 1498 1498 1499 1500 1501 1502 1504 1505 1507 1509 1510 1512 1513 1515 1517 1520 1523 1525 1526 1528 1530 1531 1532 1534 1535 1536 1537 1538 1538 1539 1540 1541 1541 1542 1543 1543 1544
1488 1489 1491 1492 1493 1494 1495 1495 1495 1495 1496 1496 1496 1496 1497 1498 1499 1501 1503 1504 1505 1506 1508 1510 1511 1513 1515 1518 1520 1523 1525 1527 1528 1530 1531 1532 1534 1534 1536 1537 1538 1539 1540 1540 1541 1542 1542 1543 1544
1487 1489 1490 1491 1492 1493 1494 1494 1495 1492 1494 1494 1494 1495 1496 1496 1497 1498 1500 1501 1502 1504 1506 1508 1509 1511 1513 1515 1518 1520 1523 1525 1527 1528 1530 1531 1532 1533 1535 1536 1537 1538 1539 1540 1541 1541 1542 1543 1544
1489 1489 1488 1489 1490 1492 1493 1491 1491 1491 1492 1492 1493 1493 1494 1494 1495 1496 1497 1498 1500 1501 1503 1505 1507 1509 1511 1513 1515 1518 1520 1523 1525 1526 1528 1530 1531 1532 1533 1535 1536 1537 1538 1539 1540 1541 1542 1542 1543
1487 1485 1483 1486 1488 1490 1493 1483 1487 1489 1490 1490 1491 1491 1492 1492 1493 1494 1495 1496 1497 1499 1500 1502 1504 1506 1508 1510 1513 1515 1518 1520 1522 1524 1526 1528 1529 1530 1532 1533 1534 1535 1537 1538 1539 1540 1541 1541 1542
1482 1480 1479 1483 1487 1488 1488 1482 1486 1488 1488 1489 1489 1489 1489 1490 1490 1491 1492 1493 1494 1496 1497 1499 1501 1503 1505 1508 1510 1513 1515 1518 1520 1522 1524 1525 1527 1529 1530 1531 1533 1534 1535 1536 1538 1539 1540 1540 1541
1477 1477 1478 1480 1484 1486 1485 1482 1484 1487 1487 1487 1487 1487 1487 1487 1487 1488 1489 1490 1491 1493 1494 1496 1498 1500 1502 1505 1507 1510 1512 1515 1517 1519 1521 1523 1525 1526 1528 1529 1531 1532 1534 1535 1536 1537 1538 1539 1540
1479 1479 1478 1480 1484 1485 1481 1480 1481 1484 1485 1484 1484 1484 1484 1485 1486 1486 1486 1487 1488 1489 1491 1493 1494 1496 1499 1501 1504 1506 1508 1511 1514 1516 1518 1520 1522 1524 1525 1527 1529 1530 1531 1533 1534 1535 1536 1537 1538
1481 1479 1478 1481 1485 1484 1481 1479 1477 1480 1481 1481 1481 1481 1481 1482 1482 1482 1483 1483 1484 1486 1487 1490 1492 1493 1496 1498 1501 1503 1506 1508 1511 1513 1515 1517 1519 1521 1523 1525 1526 1527 1529 1530 1531 1533 1534 1535 1536
1480 1479 1479 1481 1483 1484 1482 1473 1472 1475 1478 1479 1479 1479 1479 1479 1479 1479 1480 1480 1481 1482 1484 1486 1488 1490 1493 1495 1498 1500 1503 1505 1507 1509 1512 1514 1516 1518 1520 1522 1524 1525 1526 1527 1529 1530 1531 1532 1534
1478 1481 1482 1483 1480 1475 1479 1468 1464 1470 1473 1474 1476 1476 1476 1476 1477 1477 1477 1478 1478 1480 1482 1483 1485 1488 1490 1492 1494 1496 1498 1500 1503 1506 1508 1511 1513 1515 1517 1519 1520 1522 1523 1525 1526 1527 1529 1530 1531
1480 1483 1483 1482 1479 1477 1476 1473 1460 1469 1469 1469 1472 1473 1473 1473 1474 1474 1475 1476 1476 1477 1479 1480 1483 1484 1486 1489 1491 1493 1496 1498 1501 1503 1505 1507 1509 1512 1514 1515 1517 1518 1520 1522 1523 1525 1526 1527 1529
1484 1482 1482 1481 1478 1474 1470 1470 1459 1464 1466 1466 1470 1472 1472 1471 1472 1472 1473 1474 1474 1475 1476 1478 1479 1481 1483 1485 1487 1489 1492 1495 1497 1499 1501 1503 1506 1508 1510 1511 1513 1515 1517 1519 1520 1522 1523 1524 1526
1482 1478 1474 1472 1469 1462 1471 1470 1463 1466 1469 1469 1470 1470 1470 1470 1470 1470 1470 1471 1471 1472 1473 1475 1476 1478 1480 1482 1484 1486 1489 1491 1493 1496 1498 1500 1502 1504 1506 1508 1510 1511 1513 1515 1517 1519 1520 1521 1523
1480 1477 1473 1470 1463 1459 1473 1467 1463 1469 1471 1471 1470 1470 1469 1469 1469 1468 1469 1469 1469 1470 1471 1472 1473 1475 1477 1479 1481 1483 1485 1488 1490 1492 1495 1496 1498 1500 1503 1505 1506 1508 1510 1511 1513 1515 1516 1518 1519
1479 1477 1478 1475 1474 1470 1460 1463 1466 1468 1470 1470 1470 1469 1468 1468 1467 1467 1467 1467 1467 1467 1468 1469 1470 1472 1474 1476 1477 1480 1482 1484 1487 1489 1491 1493 1495 1497 1499 1501 1503 1504 1506 1508 1509 1511 1513 1514 1515
1481 1479 1478 1474 1470 1461 1456 1459 1456 1464 1466 1468 1469 1468 1467 1467 1466 1465 1465 1465 1465 1465 1466 1467 1468 1469 1470 1472 1474 1476 1479 1481 1483 1485 1487 1489 1491 1493 1495 1497 1499 1500 1502 1504 1506 1507 1509 1510 1511
1481 1481 1477 1472 1470 1463 1456 1453 1459 1462 1465 1467 1468 1468 1467 1465 1464 1463 1463 1463 1463 1463 1463 1464 1465 1467 1468 1470 1471 1474 1476 1478 1479 1481 1483 1485 1487 1489 1491 1493 1495 1496 1498 1500 1501 1503 1504 1506 1507
1479 1476 1476 1471 1470 1468 1459 1457 1464 1465 1466 1468 1468 1467 1465 1464 1463 1462 1461 1460 1460 1460 1460 1461 1462 1464 1465 1467 1469 1470 1472 1474 1476 1477 1479 1481 1483 1485 1487 1489 1491 1492 1494 1496 1497 1499 1500 1502 1504